Weather in Nikitkino

Russia / Samara Oblast     54°02′58″N   52°24′23″E
temp.,
°C
wind,
m/s
gust,
m/s
humid.,
%
clouds,
%
prec.,
mm/h
press.,
hPa
HPBL,
m
8 august, mon
mon801:00+19ne226498 0.0 101911
04:00+18nne227066 0.0 102012
07:00+21nne236752 0.0 102095
10:00+26ne2247100 0.0 1019814
13:00+29ne3334100 0.0 10192764
16:00+27ene6545100 0.0 10191101
19:00+23ne376196 0.0 1019164
22:00+23ne225972 0.0 101926
9 august, tue
tue901:00+20nne227099 1.1 101923
04:00+19nne227699 1.9 101916
07:00+21ne1271100 0.0 101982
10:00+26ne2354100 0.0 1019589
13:00+28nne2243100 0.0 10181885
16:00+27nne3449100 0.0 1017306
19:00+25nne3453100 0.0 101782
22:00+23ene1163100 0.0 101712
10 august, wed
wed1001:00+21nne1170100 0.0 101711
04:00+21ese1167100 0.1 101711
07:00+21ene117299 0.5 101835
10:00+26se225653 0.5 1018666
13:00+28s224554 0.0 10171614
16:00+29nnw1243100 0.1 10161611
19:00+21se5108260 2.0 1017209
22:00+18ssw37945 3.1 1017132
11 august, thu
thu1101:00+18s228529 0.0 101712
04:00+18s22875 0.0 101712
07:00+20wsw118028 0.0 101893
10:00+23nw4465100 0.0 1018656
13:00+24nnw6562100 0.0 10191178
16:00+22nnw5656100 0.0 10201131
19:00+20n5856100 0.0 1021659
22:00+15n31070100 0.0 1022244
12 august, fri
fri1201:00+13n35810 0.0 102397
04:00+11n34885 0.0 102373
07:00+14n35755 0.0 1024196
10:00+20n45465 0.0 1024995
13:00+23nnw4540100 0.0 10231673
16:00+24nw463988 0.0 10221854
19:00+21nnw35552 0.0 102294
22:00+16nnw22690 0.0 102314